Location: Little Baddow
(51.7333°N, 0.5667°E)
Time: 11:23:14
(UTC+00:00)

Lacrosse 5 rocket - Pass Details

Date: 08 November 2025
Orbit: 406 x 493 km, 57.0° (Epoch: 09 December)

Event Time Altitude Azimuth Distance (km) Brightness Sun altitude
Exits shadow 05:19:48 30° 323° (NW) 800 1.8 -16.3°
Maximum altitude 05:20:34 34° 352° (N) 728 1.8 -16.2°
Drops below altitude 10° 05:23:40 10° 60° (ENE) 1,507 4.3 -15.7°
Sets 05:25:51 0° 70° (ENE) 2,359 5.7 -15.4°
